Tracking 19576 objects as of 17-Feb-2019
HD Live streaming from Space Station
objects crossing your sky now

SL-18 DEB

Track SL-18 DEB now!
10-day predictions


NORAD ID: 22567
Int'l Code: 1993-014C
Perigee: 662.8 km
Apogee: 898.7 km
Inclination: 75.8 °
Period: 100.3 minutes
Semi major axis: 7151 km
RCS: 0.0441 m2 (small)
Launch date: March 25, 1993
Source: Commonwealth of Independent States (former USSR) (CIS)
Launch site: PLESETSK MISSILE AND SPACE COMPLEX (PKMTR)

Note: This is SATELLITE DEBRIS
aabbcc
Your satellite tracking list
Your tracking list is empty




NASA's NSSDC Master Catalog

Two Line Element Set (TLE):
1 22567U 93014C   19046.89311612  .00000199  00000-0  64602-4 0  9991
2 22567  75.7546 193.9218 0164957 301.5965 179.7997 14.35445869349354
Source of the keplerian elements: AFSPC